DW7857 Weather Reports


time (UTC)temp
C
wind
direction
speed
KPH
gust
KPH
rain 1hr
cm
rain 24hr
cm
rain mn
cm
humidity
%
barometer
mb
20171123223016 7 90 0.0 3.2 0.00 0.86 0.38 71 996.3
20171123222016 7 0 0.0 0.0 0.00 0.89 0.38 71 996.4
20171123221016 7 60 0.0 3.2 0.00 0.97 0.38 66 996.3
20171123220016 7 0 0.0 0.0 0.00 1.02 0.38 65 996.7
20171123215016 7 314 0.0 1.6 0.00 1.04 0.38 64 996.6
20171123214016 7 0 0.0 0.0 0.00 1.14 0.38 64 996.5
20171123213016 7 305 1.6 4.8 0.00 1.42 0.38 64 996.5
20171123212016 7 0 0.0 0.0 0.00 1.45 0.38 63 996.6
20171123211016 7 0 0.0 0.0 0.00 1.47 0.38 63 996.5
20171123210016 7 248 1.6 6.4 0.00 1.50 0.38 63 996.9
20171123205016 8 242 3.2 8.0 0.00 1.52 0.38 63 996.5
20171123204016 8 300 4.8 8.0 0.00 1.88 0.38 63 996.6
20171123203016 8 306 4.8 12.9 0.00 2.13 0.38 64 996.4
20171123202016 8 295 4.8 11.3 0.00 2.13 0.38 64 996.6
20171123201016 8 321 8.0 16.1 0.00 2.21 0.38 64 996.1
20171123200016 8 344 11.3 16.1 0.00 2.21 0.38 64 996.3
20171123195016 8 298 9.7 14.5 0.00 2.26 0.38 62 996.3
20171123194016 8 334 4.8 8.0 0.00 2.34 0.38 61 996.1
20171123193016 9 316 6.4 12.9 0.00 2.34 0.38 60 995.7
20171123192016 9 312 8.0 12.9 0.00 2.34 0.38 60 995.6
20171123191016 8 270 0.0 1.6 0.00 2.34 0.38 60 996.0
20171123190016 8 201 3.2 11.3 0.00 2.34 0.38 60 995.8
20171123185016 8 202 3.2 6.4 0.00 2.34 0.38 60 995.8
20171123184016 9 209 3.2 6.4 0.00 2.34 0.38 60 995.9
20171123183016 9 247 8.0 14.5 0.00 2.34 0.38 60 996.0
20171123182016 9 197 8.0 14.5 0.00 2.34 0.38 60 995.9
20171123181016 9 248 6.4 9.7 0.00 2.34 0.38 60 995.9
20171123180016 9 220 8.0 12.9 0.00 2.34 0.38 59 995.4
20171123175016 9 154 4.8 6.4 0.00 2.34 0.38 58 995.3
20171123174016 9 177 6.4 9.7 0.00 2.39 0.38 58 995.2
20171123173016 9 230 6.4 11.3 0.00 2.39 0.38 59 995.3
20171123172016 9 224 6.4 12.9 0.00 2.39 0.38 60 995.0
20171123171016 9 227 6.4 9.7 0.00 2.39 0.38 60 994.5
20171123170016 9 226 4.8 8.0 0.00 2.39 0.38 59 994.6
20171123165016 9 238 8.0 12.9 0.00 2.39 0.38 59 994.7
20171123164016 9 182 9.7 12.9 0.00 2.44 0.38 59 994.7
20171123163016 9 201 4.8 12.9 0.00 2.46 0.38 60 994.3
20171123162016 9 195 4.8 8.0 0.00 2.46 0.38 60 994.2
20171123161016 9 189 3.2 6.4 0.00 2.46 0.38 60 994.0
20171123160016 9 210 6.4 14.5 0.00 2.46 0.38 60 993.8
20171123155016 9 192 6.4 11.3 0.00 2.49 0.38 58 993.6
20171123154015 10 199 9.7 12.9 0.00 2.49 0.38 56 993.5
20171123153016 10 183 12.9 22.5 0.00 2.49 0.38 55 993.7
20171123152016 10 341 12.9 20.9 0.00 2.49 0.38 55 993.6
20171123151016 10 184 9.7 16.1 0.00 2.49 0.38 54 993.5
20171123150015 10 209 11.3 16.1 0.00 2.49 0.38 53 993.2
20171123145016 11 194 9.7 17.7 0.00 2.49 0.38 52 993.1
20171123144015 11 177 11.3 16.1 0.00 2.49 0.38 51 992.7
20171123143016 11 203 9.7 14.5 0.00 2.49 0.38 49 992.7
20171123142016 12 217 12.9 17.7 0.00 2.49 0.38 46 992.6
20171123141015 12 260 16.1 24.1 0.00 2.54 0.38 45 992.6
20171123140015 12 263 16.1 24.1 0.00 2.54 0.38 41 992.5
20171123135016 12 228 12.9 17.7 0.00 2.54 0.38 48 992.6
20171123134017 11 264 11.3 16.1 0.00 2.54 0.38 51 992.4
20171123133015 11 231 14.5 22.5 0.00 2.62 0.38 49 992.3
20171123132016 11 272 12.9 22.5 0.00 2.62 0.38 50 992.2
20171123131015 12 246 16.1 22.5 0.00 2.62 0.38 42 991.9
20171123130017 12 239 12.9 20.9 0.00 2.62 0.38 44 991.8
20171123125017 12 240 17.7 24.1 0.00 2.62 0.38 51 991.5
20171123124015 11 269 17.7 24.1 0.00 2.62 0.38 53 991.7
20171123122016 12 283 14.5 20.9 0.00 2.62 0.38 47 991.1
20171123121015 12 263 16.1 24.1 0.00 2.62 0.38 51 991.1
20171123120016 12 217 14.5 22.5 0.00 2.62 0.38 51 991.0
20171123115016 12 215 11.3 19.3 0.00 2.62 0.38 51 991.2
20171123114016 12 213 16.1 29.0 0.00 2.62 0.38 50 990.9
20171123113017 12 217 14.5 20.9 0.00 2.62 0.38 51 990.9
20171123112016 12 252 11.3 17.7 0.00 2.62 0.38 52 990.7
20171123111016 11 236 11.3 16.1 0.00 2.62 0.38 54 990.7
20171123110017 11 210 12.9 16.1 0.00 2.62 0.38 54 990.7
20171123105016 10 212 12.9 19.3 0.00 2.62 0.38 58 990.6
20171123104016 9 184 14.5 25.7 0.00 2.62 0.38 59 990.4
20171123103016 9 237 11.3 20.9 0.00 2.62 0.38 60 990.0
20171123102016 9 189 14.5 24.1 0.00 2.62 0.38 60 989.7
20171123101016 8 222 12.9 22.5 0.00 2.62 0.38 61 989.7
20171123100017 8 183 11.3 17.7 0.00 2.62 0.38 62 989.6
20171123095016 8 159 9.7 14.5 0.00 2.62 0.38 62 989.3
20171123094021 8 227 8.0 14.5 0.00 2.62 0.38 63 989.1
20171123093016 8 207 9.7 12.9 0.00 2.62 0.38 64 988.8
20171123092016 7 196 9.7 12.9 0.00 2.62 0.38 65 988.5
20171123091016 7 197 8.0 12.9 0.00 2.62 0.38 66 988.4
20171123090016 7 218 11.3 16.1 0.00 2.62 0.38 66 988.1
20171123085016 7 218 9.7 16.1 0.00 2.62 0.38 67 987.8
20171123084017 7 192 8.0 12.9 0.00 2.62 0.38 73 987.9
20171123083016 7 208 8.0 12.9 0.00 2.62 0.38 75 987.6
20171123082017 6 169 8.0 12.9 0.00 2.62 0.38 74 987.4
20171123081016 6 195 6.4 12.9 0.00 2.62 0.38 73 987.0
20171123080016 6 213 6.4 9.7 0.00 2.62 0.38 73 987.0
20171123075016 6 210 6.4 9.7 0.00 2.62 0.38 74 986.6
20171123074016 6 286 8.0 12.9 0.00 2.62 0.38 74 986.2
20171123073016 6 286 6.4 9.7 0.00 2.62 0.38 75 985.8
20171123072016 7 295 6.4 9.7 0.00 2.62 0.38 76 985.4
20171123071016 7 205 6.4 6.4 0.00 2.62 0.38 77 985.1
20171123070016 7 209 6.4 8.0 0.00 2.62 0.38 77 984.9
20171123065016 7 168 8.0 12.9 0.00 2.62 0.38 77 984.4
20171123064017 7 15 11.3 17.7 0.00 2.62 0.38 72 984.1
20171123063016 7 334 9.7 14.5 0.00 2.62 0.38 72 983.8
20171123062016 7 298 8.0 11.3 0.00 2.62 0.38 72 983.6
20171123061016 8 310 12.9 17.7 0.00 2.62 0.38 72 983.1
20171123060016 8 314 12.9 17.7 0.00 2.62 0.38 73 983.0
20171123055016 8 332 17.7 25.7 0.00 2.62 0.38 74 982.5
20171123054010 8 312 17.7 24.1 0.00 2.62 0.38 75 982.7
20171123053010 9 297 17.7 25.7 0.03 2.62 0.38 74 981.9
20171123052010 9 305 17.7 24.1 0.03 2.62 0.38 74 981.4
20171123051010 10 307 14.5 17.7 0.03 2.62 0.38 75 981.1
20171123050010 10 313 17.7 24.1 0.03 2.62 0.38 75 980.7
20171123045010 11 307 17.7 24.1 0.03 2.62 0.38 76 980.4
20171123044010 11 276 12.9 24.1 0.03 2.62 0.38 79 979.7
20171123043010 11 200 12.9 17.7 0.00 2.59 0.36 79 978.9
20171123042010 11 237 11.3 19.3 0.00 2.59 0.36 78 978.5
20171123041010 12 226 12.9 17.7 0.00 2.59 0.36 77 978.4
20171123040010 12 238 16.1 27.4 0.00 2.59 0.36 79 977.8
20171123035010 11 215 12.9 22.5 0.00 2.59 0.36 81 977.8
20171123034010 11 190 11.3 16.1 0.00 2.59 0.36 81 977.6
20171123033010 11 197 9.7 16.1 0.00 2.59 0.36 81 977.2
20171123032010 11 221 12.9 20.9 0.00 2.59 0.36 81 976.9
20171123031010 11 235 12.9 19.3 0.00 2.59 0.36 81 976.7
20171123030010 11 210 14.5 20.9 0.00 2.59 0.36 82 976.6
20171123025010 11 200 14.5 17.7 0.00 2.59 0.36 83 976.5
20171123024010 11 186 11.3 24.1 0.00 2.59 0.36 84 976.3
20171123023011 11 197 11.3 14.5 0.00 2.59 0.36 84 976.2
20171123022010 11 233 8.0 11.3 0.00 2.59 0.36 84 976.3
20171123021010 11 196 9.7 11.3 0.00 2.59 0.36 84 976.0
20171123020010 11 202 9.7 12.9 0.00 2.59 0.36 84 975.8
20171123015010 11 221 9.7 12.9 0.00 2.59 0.36 84 975.8
20171123014010 11 178 9.7 12.9 0.00 2.59 0.36 84 976.0
20171123013012 11 207 9.7 12.9 0.03 2.59 0.36 84 975.5
20171123012010 11 197 9.7 12.9 0.10 2.59 0.36 84 975.5
20171123011011 11 179 11.3 16.1 0.18 2.59 0.36 84 975.7
20171123010010 11 202 9.7 16.1 0.36 2.59 0.36 84 975.8
20171123005010 11 241 6.4 12.9 0.36 2.59 0.36 84 975.7
20171123004010 11 193 8.0 16.1 0.38 2.59 0.36 84 975.9
20171123003012 11 193 14.5 22.5 0.36 2.54 0.33 84 976.0
20171123002010 11 208 19.3 30.6 0.36 2.49 0.28 84 975.6
20171123001010 11 218 20.9 30.6 0.38 2.39 0.18 84 975.7
20171123000016 11 225 20.9 33.8 0.23 2.21 0.00 84 975.9
20171122235010 11 221 20.9 35.4 0.30 2.21 2.21 84 975.9
20171122234010 11 231 20.9 33.8 0.38 2.18 2.18 84 975.9
20171122233010 11 235 17.7 24.1 0.43 2.18 2.18 84 976.0
20171122232010 11 192 19.3 24.1 0.43 2.13 2.13 84 976.2
20171122231010 11 222 17.7 27.4 0.33 1.98 1.98 83 976.2
20171122230010 11 228 17.7 27.4 0.36 1.98 1.98 83 976.2
20171122225010 11 174 17.7 24.1 0.36 1.93 1.93 83 976.4
20171122224010 11 211 20.9 25.7 0.30 1.80 1.80 83 976.7